GW3931 Weather Reports


Display with metric or nautical units.
time (UTC)temp
F
wind
direction
speed
MPH
gust
MPH
rain 1hr
in
rain 24hr
in
rain mn
in
humidity
%
barometer
mb
20260510060815 59 157 0.0 0.0 0.00 0.00 0.00 87 1011.8
20260510060312 59 153 0.0 0.0 0.00 0.00 0.00 87 1011.6
20260510055809 59 153 0.0 0.0 0.00 0.00 0.00 86 1011.8
20260510055308 60 153 0.0 0.0 0.00 0.00 0.00 86 1011.6
20260510054807 60 155 0.0 0.0 0.00 0.00 0.00 85 1011.8
20260510054304 60 157 0.0 0.0 0.00 0.00 0.00 85 1011.7
20260510053804 61 159 0.0 0.0 0.00 0.00 0.00 84 1011.7
20260510053254 61 155 0.0 0.0 0.00 0.00 0.00 83 1011.6
20260510052750 61 152 0.0 0.0 0.00 0.00 0.00 82 1011.7
20260510052245 62 151 0.0 0.0 0.00 0.00 0.00 82 1011.8
20260510051742 62 151 0.0 0.0 0.00 0.00 0.00 81 1011.6
20260510051238 62 154 0.0 0.0 0.00 0.00 0.00 81 1011.7
20260510050735 62 148 0.0 0.0 0.00 0.00 0.00 81 1011.8
20260510050233 62 151 0.0 0.0 0.00 0.00 0.00 81 1011.8
20260510045729 62 148 0.0 0.0 0.00 0.00 0.00 81 1011.9
20260510045226 62 153 0.0 0.0 0.00 0.00 0.00 81 1011.8
20260510044722 62 155 0.0 0.0 0.00 0.00 0.00 80 1011.8
20260510044221 63 149 0.0 0.0 0.00 0.00 0.00 79 1011.9
20260510043715 63 146 0.0 0.0 0.00 0.00 0.00 79 1011.7
20260510043212 63 158 0.0 0.0 0.00 0.00 0.00 78 1011.9
20260510042709 63 151 0.0 1.0 0.00 0.00 0.00 78 1011.9
20260510042206 63 153 0.0 0.0 0.00 0.00 0.00 78 1011.8
20260510041703 63 156 0.0 0.0 0.00 0.00 0.00 78 1011.9
20260510041200 64 176 0.0 2.0 0.00 0.00 0.00 78 1011.7
20260510040657 64 151 0.0 1.0 0.00 0.00 0.00 77 1011.7
20260510040154 64 150 0.0 2.0 0.00 0.00 0.00 78 1011.9
20260510035649 64 152 0.0 0.0 0.00 0.00 0.00 78 1011.7
20260510035144 63 153 0.0 0.0 0.00 0.00 0.00 78 1011.6
20260510034641 63 158 0.0 0.0 0.00 0.00 0.00 78 1011.8
20260510034138 63 154 0.0 0.0 0.00 0.00 0.00 78 1011.6
20260510033635 63 153 0.0 0.0 0.00 0.00 0.00 78 1011.6
20260510033133 63 159 0.0 0.0 0.00 0.00 0.00 78 1011.5
20260510032629 63 148 0.0 0.0 0.00 0.00 0.00 77 1011.4
20260510032124 64 153 0.0 0.0 0.00 0.00 0.00 77 1011.5
20260510031619 64 153 0.0 0.0 0.00 0.00 0.00 76 1011.5
20260510031116 64 154 0.0 0.0 0.00 0.00 0.00 75 1011.6
20260510030611 65 156 0.0 0.0 0.00 0.00 0.00 75 1011.5
20260510030109 65 155 0.0 0.0 0.00 0.00 0.00 75 1011.5
20260510025606 65 154 0.0 0.0 0.00 0.00 0.00 74 1011.3
20260510025103 66 154 0.0 0.0 0.00 0.00 0.00 73 1011.4
20260510024600 66 162 0.0 0.0 0.00 0.00 0.00 72 1011.6
20260510024056 66 152 0.0 0.0 0.00 0.00 0.00 72 1011.4
20260510023552 66 154 0.0 0.0 0.00 0.00 0.00 71 1011.3
20260510023050 67 152 0.0 0.0 0.00 0.00 0.00 70 1011.2
20260510022549 67 156 0.0 0.0 0.00 0.00 0.00 70 1011.3
20260510022043 67 147 0.0 0.0 0.00 0.00 0.00 69 1011.1
20260510021540 68 140 0.0 0.0 0.00 0.00 0.00 69 1011.2
20260510021038 68 145 0.0 0.0 0.00 0.00 0.00 68 1011.0
20260510020532 68 140 0.0 0.0 0.00 0.00 0.00 68 1011.1
20260510020028 68 145 0.0 1.0 0.00 0.00 0.00 67 1011.0
20260510015523 68 147 0.0 0.0 0.00 0.00 0.00 67 1011.0
20260510015020 68 143 0.0 0.0 0.00 0.00 0.00 67 1011.0
20260510014517 68 146 0.0 1.0 0.00 0.00 0.00 67 1011.0
20260510014014 68 141 0.0 1.0 0.00 0.00 0.00 67 1010.9
20260510013508 68 109 0.0 1.0 0.00 0.00 0.00 66 1010.6
20260510013004 68 148 0.0 1.0 0.00 0.00 0.00 66 1010.9
20260510012458 69 148 0.0 1.0 0.00 0.00 0.00 66 1010.6
20260510011954 69 78 0.0 1.0 0.00 0.00 0.00 65 1010.6
20260510011449 69 129 0.0 1.0 0.00 0.00 0.00 64 1010.6
20260510010945 70 138 0.0 1.0 0.00 0.00 0.00 63 1010.7
20260510010443 69 138 0.0 1.0 0.00 0.00 0.00 62 1010.2
20260510005939 69 139 0.0 1.0 0.00 0.00 0.00 63 1010.1
20260510005435 69 153 0.0 0.0 0.00 0.00 0.00 63 1010.1
20260510004932 69 156 0.0 0.0 0.00 0.00 0.00 62 1010.0
20260510004430 69 156 0.0 0.0 0.00 0.00 0.00 61 1010.2
20260510003928 70 158 0.0 0.0 0.00 0.00 0.00 61 1010.2
20260510003425 70 156 0.0 0.0 0.00 0.00 0.00 60 1010.2
20260510002924 70 162 0.0 0.0 0.00 0.00 0.00 59 1009.9
20260510002421 71 154 0.0 0.0 0.00 0.00 0.00 58 1010.0
20260510001918 71 156 0.0 0.0 0.00 0.00 0.00 57 1009.9
20260510001415 71 152 0.0 0.0 0.00 0.00 0.00 57 1009.7
20260510000912 72 155 0.0 0.0 0.00 0.00 0.00 56 1010.0
20260510000411 72 161 0.0 0.0 0.00 0.00 0.00 56 1009.8
20260509235905 73 146 0.0 0.0 0.00 0.00 0.00 55 1009.9
20260509235402 73 146 0.0 0.0 0.00 0.00 0.00 54 1009.8
20260509234858 73 151 0.0 0.0 0.00 0.00 0.00 53 1009.8
20260509234356 73 148 0.0 2.0 0.00 0.00 0.00 53 1009.7
20260509233853 74 150 0.0 0.0 0.00 0.00 0.00 53 1009.7
20260509233351 74 151 0.0 1.0 0.00 0.00 0.00 52 1009.7
20260509232846 74 151 0.0 0.0 0.00 0.00 0.00 52 1009.5
20260509232345 74 192 0.0 1.0 0.00 0.00 0.00 50 1009.7
20260509231840 74 176 0.0 1.0 0.00 0.00 0.00 51 1009.7
20260509231337 74 143 0.0 0.0 0.00 0.00 0.00 51 1009.5
20260509230835 75 163 1.0 2.0 0.00 0.00 0.00 50 1009.4
20260509230332 75 202 0.0 0.0 0.00 0.00 0.00 50 1009.4
20260509225827 75 136 0.0 0.0 0.00 0.00 0.00 50 1009.5
20260509225324 75 151 0.0 2.0 0.00 0.00 0.00 50 1009.6
20260509224820 75 155 1.0 3.0 0.00 0.00 0.00 50 1009.7
20260509224316 75 168 2.0 3.0 0.00 0.00 0.00 50 1009.5
20260509223813 75 122 0.0 1.0 0.00 0.00 0.00 50 1009.4
20260509223310 75 173 0.0 0.0 0.00 0.00 0.00 51 1009.6
20260509222807 75 124 0.0 2.0 0.00 0.00 0.00 51 1009.5
20260509222306 75 83 1.0 3.0 0.00 0.00 0.00 51 1009.7
20260509221758 75 139 0.0 1.0 0.00 0.00 0.00 50 1009.9
20260509221255 77 118 0.0 2.0 0.00 0.00 0.00 49 1009.8
20260509220750 76 213 2.0 3.0 0.00 0.00 0.00 50 1009.7
20260509220247 76 164 0.0 1.0 0.00 0.00 0.00 50 1009.7
20260509215742 75 179 0.0 0.0 0.00 0.00 0.00 51 1009.6
20260509215239 75 217 0.0 2.0 0.00 0.00 0.00 51 1009.5
20260509214736 75 171 1.0 4.0 0.00 0.00 0.00 52 1009.7
20260509214234 76 144 2.0 3.0 0.00 0.00 0.00 50 1009.7
20260509213731 76 97 0.0 6.0 0.00 0.00 0.00 50 1009.7
20260509213226 74 111 0.0 2.0 0.00 0.00 0.00 52 1009.7
20260509212724 75 170 0.0 3.0 0.00 0.00 0.00 51 1009.7
20260509212221 76 277 2.0 2.0 0.00 0.00 0.00 50 1009.6
20260509211716 77 176 2.0 4.0 0.00 0.00 0.00 49 1009.8
20260509211213 77 249 3.0 6.0 0.00 0.00 0.00 48 1009.8
20260509210709 77 158 0.0 1.0 0.00 0.00 0.00 48 1009.6
20260509210202 78 260 2.0 3.0 0.00 0.00 0.00 47 1009.6
20260509205701 76 55 0.0 3.0 0.00 0.00 0.00 49 1009.6
20260509205200 77 280 4.0 4.0 0.00 0.00 0.00 48 1009.4
20260509204657 78 124 2.0 2.0 0.00 0.00 0.00 48 1009.4
20260509204153 77 227 1.0 6.0 0.00 0.00 0.00 48 1009.3
20260509203649 77 114 1.0 4.0 0.00 0.00 0.00 49 1009.4
20260509203148 77 133 1.0 2.0 0.00 0.00 0.00 49 1009.3
20260509202643 76 96 0.0 3.0 0.00 0.00 0.00 49 1009.4
20260509202138 77 335 3.0 4.0 0.00 0.00 0.00 49 1009.5
20260509201633 75 146 1.0 6.0 0.00 0.00 0.00 50 1009.5
20260509201131 75 163 1.0 4.0 0.00 0.00 0.00 50 1009.9
20260509200626 75 19 3.0 6.0 0.00 0.00 0.00 50 1009.9
20260509200117 75 226 0.0 6.0 0.00 0.00 0.00 51 1010.0
20260509195613 76 285 2.0 6.0 0.00 0.00 0.00 51 1009.9
20260509195108 75 214 1.0 3.0 0.00 0.00 0.00 52 1009.9
20260509194607 75 312 4.0 6.0 0.00 0.00 0.00 51 1010.1
20260509194105 75 216 2.0 3.0 0.00 0.00 0.00 52 1010.2
20260509193601 75 257 2.0 8.0 0.00 0.00 0.00 52 1010.3
20260509193056 74 145 1.0 2.0 0.00 0.00 0.00 54 1010.2
20260509192553 74 191 1.0 2.0 0.00 0.00 0.00 52 1010.5
20260509192048 72 217 2.0 3.0 0.00 0.00 0.00 55 1010.4
20260509191542 72 128 1.0 4.0 0.00 0.00 0.00 55 1010.6
20260509191038 71 275 1.0 3.0 0.00 0.00 0.00 55 1010.4
20260509190536 72 143 1.0 6.0 0.00 0.00 0.00 55 1010.5
20260509190034 72 174 1.0 4.0 0.00 0.00 0.00 55 1010.5
20260509185531 72 87 0.0 3.0 0.00 0.00 0.00 55 1010.3
20260509185027 72 221 1.0 2.0 0.00 0.00 0.00 55 1010.8
20260509184526 72 138 0.0 3.0 0.00 0.00 0.00 56 1010.7
20260509184022 71 7 3.0 6.0 0.00 0.00 0.00 55 1010.9
20260509183517 71 254 2.0 7.0 0.00 0.00 0.00 55 1011.0
20260509183013 71 159 2.0 6.0 0.00 0.00 0.00 55 1011.0
20260509182509 72 293 4.0 6.0 0.00 0.00 0.00 54 1011.0
20260509182006 71 104 2.0 4.0 0.00 0.00 0.00 55 1011.1
20260509181504 71 169 0.0 2.0 0.00 0.00 0.00 55 1011.3
20260509181001 71 141 0.0 6.0 0.00 0.00 0.00 56 1011.4
20260509180457 71 227 1.0 4.0 0.00 0.00 0.00 54 1011.3
20260509175954 71 165 0.0 3.0 0.00 0.00 0.00 55 1011.5
20260509175450 71 64 3.0 6.0 0.00 0.00 0.00 55 1011.6
20260509174947 71 176 0.0 3.0 0.00 0.00 0.00 55 1011.6
20260509174443 71 268 3.0 8.0 0.00 0.00 0.00 53 1011.7
20260509173938 72 340 3.0 4.0 0.00 0.00 0.00 52 1011.5
20260509173433 72 140 0.0 3.0 0.00 0.00 0.00 52 1011.5
20260509172930 72 296 2.0 3.0 0.00 0.00 0.00 52 1011.7
20260509172427 71 304 0.0 2.0 0.00 0.00 0.00 53 1011.8
20260509171923 71 284 2.0 6.0 0.00 0.00 0.00 54 1011.6
20260509171419 71 168 0.0 6.0 0.00 0.00 0.00 54 1011.7
20260509170915 71 235 1.0 3.0 0.00 0.00 0.00 54 1011.7
20260509170411 70 262 4.0 6.0 0.00 0.00 0.00 54 1011.7
20260509165907 71 155 1.0 4.0 0.00 0.00 0.00 54 1011.8
20260509165401 70 220 1.0 6.0 0.00 0.00 0.00 55 1011.9
20260509164857 71 81 2.0 8.0 0.00 0.00 0.00 54 1011.8
20260509164353 70 57 2.0 7.0 0.00 0.00 0.00 54 1012.1
20260509163849 71 309 4.0 6.0 0.00 0.00 0.00 54 1011.8
20260509163346 71 242 3.0 4.0 0.00 0.00 0.00 53 1011.9
20260509162845 71 259 2.0 6.0 0.00 0.00 0.00 53 1012.0
20260509162343 69 136 1.0 3.0 0.00 0.00 0.00 55 1011.8
20260509161840 69 307 4.0 8.0 0.00 0.00 0.00 55 1012.1
20260509161336 69 95 2.0 3.0 0.00 0.00 0.00 55 1011.9
20260509160832 69 204 0.0 3.0 0.00 0.00 0.00 56 1011.9
20260509160328 68 263 3.0 7.0 0.00 0.00 0.00 56 1011.9
20260509155823 68 334 2.0 8.0 0.00 0.00 0.00 56 1012.1
20260509155320 69 221 3.0 4.0 0.00 0.00 0.00 55 1012.1
20260509154816 69 156 1.0 3.0 0.00 0.00 0.00 56 1012.2
20260509154313 69 70 4.0 6.0 0.00 0.00 0.00 56 1012.3
20260509153810 69 272 1.0 4.0 0.00 0.00 0.00 55 1012.3
20260509153306 69 330 1.0 6.0 0.00 0.00 0.00 57 1012.2
20260509152803 69 291 3.0 6.0 0.00 0.00 0.00 55 1012.2
20260509152259 70 212 6.0 8.0 0.00 0.00 0.00 54 1012.2
20260509151756 70 274 2.0 3.0 0.00 0.00 0.00 55 1012.2
20260509151253 69 118 1.0 2.0 0.00 0.00 0.00 56 1012.5
20260509150751 69 7 3.0 7.0 0.00 0.00 0.00 57 1012.4
20260509150249 68 162 2.0 3.0 0.00 0.00 0.00 58 1012.5
20260509145746 68 162 1.0 4.0 0.00 0.00 0.00 58 1012.6
20260509145245 67 178 2.0 4.0 0.00 0.00 0.00 59 1012.6
20260509144742 66 109 1.0 9.0 0.00 0.00 0.00 60 1012.8
20260509144239 67 250 2.0 6.0 0.00 0.00 0.00 59 1012.8
20260509143736 67 274 3.0 4.0 0.00 0.00 0.00 58 1012.9
20260509143234 67 90 2.0 6.0 0.00 0.00 0.00 59 1013.0
20260509142730 66 181 1.0 4.0 0.00 0.00 0.00 60 1013.1
20260509142226 66 155 2.0 2.0 0.00 0.00 0.00 61 1013.0
20260509141721 65 153 2.0 4.0 0.00 0.00 0.00 61 1013.0
20260509141219 65 348 3.0 3.0 0.00 0.00 0.00 61 1013.1
20260509140715 65 219 2.0 4.0 0.00 0.00 0.00 61 1013.1
20260509140213 65 130 1.0 2.0 0.00 0.00 0.00 62 1013.2
20260509135710 64 190 1.0 3.0 0.00 0.00 0.00 63 1013.0
20260509135209 63 177 1.0 3.0 0.00 0.00 0.00 64 1012.9
20260509134705 62 111 2.0 4.0 0.00 0.00 0.00 65 1013.1
20260509134202 62 54 1.0 3.0 0.00 0.00 0.00 65 1013.2
20260509133700 62 65 2.0 3.0 0.00 0.00 0.00 65 1013.2
20260509133156 62 159 1.0 7.0 0.00 0.00 0.00 65 1013.0
20260509132655 62 193 2.0 2.0 0.00 0.00 0.00 65 1013.3
20260509132153 62 250 3.0 4.0 0.00 0.00 0.00 65 1013.1
20260509131648 62 12 1.0 2.0 0.00 0.00 0.00 65 1012.8
20260509131145 62 117 2.0 2.0 0.00 0.00 0.00 65 1013.1
20260509130641 62 90 1.0 6.0 0.00 0.00 0.00 66 1013.1
20260509130137 61 210 2.0 4.0 0.00 0.00 0.00 66 1013.2
20260509125634 61 57 2.0 2.0 0.00 0.00 0.00 66 1013.4
20260509125131 61 152 1.0 3.0 0.00 0.00 0.00 67 1013.2
20260509124627 61 147 0.0 6.0 0.00 0.00 0.00 66 1013.3
20260509124125 61 68 2.0 4.0 0.00 0.00 0.00 66 1013.3
20260509123623 60 116 1.0 3.0 0.00 0.00 0.00 66 1013.2
20260509123119 60 132 2.0 2.0 0.00 0.00 0.00 66 1013.1
20260509122615 60 99 2.0 7.0 0.00 0.00 0.00 66 1013.1
20260509122113 60 346 3.0 4.0 0.00 0.00 0.00 66 1013.1
20260509121609 60 107 1.0 9.0 0.00 0.00 0.00 66 1013.1
20260509121107 60 23 2.0 6.0 0.00 0.00 0.00 66 1013.2
20260509120604 60 92 1.0 3.0 0.00 0.00 0.00 66 1013.1
20260509115559 60 92 1.0 2.0 0.00 0.00 0.00 66 1013.3
20260509115057 60 63 2.0 6.0 0.00 0.00 0.00 65 1013.0
20260509114555 60 52 0.0 6.0 0.00 0.00 0.00 65 1013.1
20260509114054 59 160 0.0 7.0 0.00 0.00 0.00 65 1013.3
20260509113551 59 60 0.0 1.0 0.00 0.00 0.00 65 1013.3
20260509113049 59 80 1.0 4.0 0.00 0.00 0.00 63 1013.3
20260509112545 59 196 0.0 2.0 0.00 0.00 0.00 63 1013.2
20260509112042 60 116 1.0 2.0 0.00 0.00 0.00 61 1013.1
20260509111539 60 158 0.0 3.0 0.00 0.00 0.00 61 1012.8
20260509111036 59 152 0.0 2.0 0.00 0.00 0.00 61 1013.0
20260509110533 59 100 0.0 2.0 0.00 0.00 0.00 60 1012.9
20260509110030 59 146 0.0 4.0 0.00 0.00 0.00 60 1013.0
20260509105529 59 162 1.0 2.0 0.00 0.00 0.00 60 1012.9
20260509105026 59 86 1.0 2.0 0.00 0.00 0.00 59 1012.9
20260509104522 60 168 4.0 6.0 0.00 0.00 0.00 59 1012.9
20260509104019 60 48 1.0 2.0 0.00 0.00 0.00 59 1012.9
20260509103517 60 131 0.0 4.0 0.00 0.00 0.00 59 1012.9
20260509103015 60 125 0.0 3.0 0.00 0.00 0.00 59 1012.8
20260509102512 60 121 0.0 3.0 0.00 0.00 0.00 58 1013.0
20260509102009 60 150 0.0 1.0 0.00 0.00 0.00 59 1012.5
20260509101505 60 155 0.0 1.0 0.00 0.00 0.00 58 1012.9
20260509101002 60 122 0.0 1.0 0.00 0.00 0.00 57 1012.7
20260509100459 60 140 0.0 2.0 0.00 0.00 0.00 57 1012.4
20260509095956 60 167 1.0 2.0 0.00 0.00 0.00 56 1012.6
20260509095453 60 162 0.0 1.0 0.00 0.00 0.00 56 1012.4
20260509094950 60 172 0.0 1.0 0.00 0.00 0.00 55 1012.5
20260509094447 60 124 0.0 1.0 0.00 0.00 0.00 56 1012.4
20260509093944 60 141 0.0 1.0 0.00 0.00 0.00 55 1012.4
20260509093442 60 155 3.0 4.0 0.00 0.00 0.00 54 1012.5
20260509092939 60 159 0.0 3.0 0.00 0.00 0.00 54 1012.6
20260509092437 60 110 2.0 3.0 0.00 0.00 0.00 54 1012.7
20260509091936 60 224 2.0 4.0 0.00 0.00 0.00 55 1012.6
20260509091432 60 85 1.0 2.0 0.00 0.00 0.00 55 1012.6
20260509090929 60 138 0.0 1.0 0.00 0.00 0.00 55 1013.0
20260509090426 60 186 2.0 3.0 0.00 0.00 0.00 55 1012.9
20260509085924 60 316 3.0 3.0 0.00 0.00 0.00 55 1012.9
20260509085421 60 225 1.0 3.0 0.00 0.00 0.00 56 1012.9
20260509084917 60 145 0.0 1.0 0.00 0.00 0.00 56 1012.9
20260509084414 60 146 0.0 2.0 0.00 0.00 0.00 56 1013.0
20260509083912 60 159 0.0 1.0 0.00 0.00 0.00 57 1013.0
20260509083409 60 256 1.0 2.0 0.00 0.00 0.00 57 1012.8
20260509082905 60 195 1.0 4.0 0.00 0.00 0.00 57 1013.0
20260509082402 60 250 2.0 3.0 0.00 0.00 0.00 58 1012.9
20260509081859 60 279 1.0 2.0 0.00 0.00 0.00 58 1013.0
20260509081356 60 171 1.0 2.0 0.00 0.00 0.00 58 1013.3
20260509080854 60 189 0.0 3.0 0.00 0.00 0.00 57 1013.3
20260509080352 60 148 0.0 2.0 0.00 0.00 0.00 57 1013.3
20260509075850 60 303 1.0 3.0 0.00 0.00 0.00 57 1013.4
20260509075346 60 221 0.0 3.0 0.00 0.00 0.00 57 1013.4
20260509074844 60 282 2.0 7.0 0.00 0.00 0.00 56 1013.4
20260509074342 60 315 2.0 3.0 0.00 0.00 0.00 56 1013.5
20260509073837 60 186 0.0 1.0 0.00 0.00 0.00 56 1013.3
20260509073334 60 244 2.0 7.0 0.00 0.00 0.00 56 1013.3
20260509072831 60 168 1.0 4.0 0.00 0.00 0.00 56 1013.4
20260509072327 60 279 1.0 4.0 0.00 0.00 0.00 56 1013.5
20260509071824 60 246 3.0 4.0 0.00 0.00 0.00 56 1013.5
20260509071321 60 22 2.0 3.0 0.00 0.00 0.00 56 1013.5
20260509070818 60 112 2.0 4.0 0.00 0.00 0.00 56 1013.5
20260509070315 60 238 1.0 3.0 0.00 0.00 0.00 56 1013.3
20260509065811 59 102 0.0 3.0 0.00 0.00 0.00 56 1013.5
20260509065307 59 114 3.0 4.0 0.00 0.00 0.00 56 1013.6
20260509064803 59 123 0.0 1.0 0.00 0.00 0.00 57 1013.6
20260509064301 59 295 2.0 2.0 0.00 0.00 0.00 57 1013.8
20260509063759 59 54 1.0 2.0 0.00 0.00 0.00 57 1013.6
20260509063254 59 122 0.0 2.0 0.00 0.00 0.00 57 1013.9
20260509062752 59 132 1.0 1.0 0.00 0.00 0.00 57 1013.9
20260509062249 59 145 1.0 2.0 0.00 0.00 0.00 57 1013.9
20260509061746 59 120 1.0 1.0 0.00 0.00 0.00 57 1013.7
20260509061244 59 132 1.0 1.0 0.00 0.00 0.00 57 1013.7